Weather History for New Castle, PA

Change the Weather History Date:

Sunday, February 3, 2013

  Actual Average Record
Temperature  
Mean Temperature 18 °F -  
Max Temperature 21 °F 37 °F 51 °F (1984)
Min Temperature 15 °F 18 °F -14 °F (1951)
Degree Days  
Heating Degree Days 47    
Moisture  
Dew Point 13 °F    
Average Humidity 79    
Maximum Humidity 93    
Minimum Humidity 60    
Precipitation  
Precipitation 0.00 in - - ()
Sea Level Pressure  
Sea Level Pressure 29.95 in    
Wind  
Wind Speed 5 mph (WSW)    
Max Wind Speed 14 mph    
Max Gust Speed -    
Visibility 8 miles    
Events Snow    
Averages and records for this station are not official NWS values.
T = Trace of Precipitation, MM = Missing Value Source: NWS Daily Summary

Daily Weather History Graph

Daily Weather History Graph

Search for Another Location

Airport:

Trip Planner

Search our weather history database for the weather conditions in past years. The results will help you decide how hot, cold, wet, or windy it might be!

Date:

Astronomy

Feb. 03, 2013 Rise Set
Actual Time 7:30 AM EST 5:41 PM EST
Civil Twilight 7:01 AM EST 6:10 PM EST
Nautical Twilight 6:28 AM EST 6:43 PM EST
Astronomical Twilight 5:56 AM EST 7:15 PM EST
Moon 12:56 AM EST (2/3) 11:17 AM EST (2/3)
Length of Visible Light 11h 09m
Length of Day
10h 11m
Waning Gibbous, 49% of the Moon is Illuminated
Feb 3
Waning Gibbous
Feb 10
New
Feb 17
First Quarter
Feb 25
Full
Mar 4
Last Quarter

Hourly Weather History & Observations

Time (EST) Temp. Windchill Dew Point Humidity Pressure Visibility Wind Dir Wind Speed Gust Speed Precip Events Conditions
12:56 AM 21.0 °F 16.2 °F 18.1 °F 89% 30.03 in 10.0 mi SSW 3.5 mph - 0.00 in   Mostly Cloudy
1:07 AM 21.2 °F 16.4 °F 17.6 °F 86% 29.93 in 9.0 mi SW 3.5 mph - 0.00 in Snow Light Snow
1:56 AM 21.0 °F - 18.1 °F 89% 30.01 in 8.0 mi Calm Calm - 0.00 in Snow Light Snow
2:56 AM 20.1 °F - 18.1 °F 92% 30.01 in 8.0 mi Calm Calm - 0.00 in Snow Light Snow
3:56 AM 20.1 °F - 18.1 °F 92% 29.98 in 7.0 mi Calm Calm - 0.00 in   Overcast
4:16 AM 19.4 °F - 17.6 °F 93% 29.88 in 7.0 mi Calm Calm - 0.00 in Snow Light Snow
5:56 AM 19.0 °F - 17.1 °F 92% 29.96 in 7.0 mi Calm Calm - 0.00 in   Overcast
6:56 AM 19.0 °F - 16.2 °F 89% 29.95 in 7.0 mi Calm Calm - 0.00 in Snow Light Snow
7:35 AM 19.4 °F - 15.8 °F 86% 29.86 in 6.0 mi Calm Calm - 0.00 in   Overcast
7:56 AM 19.0 °F - 17.1 °F 92% 29.96 in 1.5 mi Calm Calm - 0.00 in Snow Light Snow
7:58 AM 19.4 °F - 17.6 °F 93% 29.86 in 1.8 mi Calm Calm - 0.00 in Snow Light Snow
8:01 AM 19.4 °F 14.3 °F 17.6 °F 93% 29.86 in 2.0 mi SW 3.5 mph - 0.00 in Snow Light Snow
8:09 AM 19.4 °F 14.3 °F 17.6 °F 93% 29.86 in 4.0 mi SW 3.5 mph - 0.00 in Snow Light Snow
8:30 AM 19.4 °F 11.5 °F 15.8 °F 86% 29.87 in 4.0 mi WSW 5.8 mph - 0.00 in Snow Light Snow
8:47 AM 19.4 °F 11.5 °F 15.8 °F 86% 29.87 in 3.0 mi WSW 5.8 mph - 0.00 in Snow Light Snow
8:56 AM 20.1 °F 12.3 °F 16.2 °F 85% 29.97 in 5.0 mi West 5.8 mph - 0.00 in Snow Light Snow
9:09 AM 19.4 °F 9.5 °F 15.8 °F 86% 29.87 in 4.0 mi WSW 8.1 mph - 0.00 in Snow Light Snow
9:56 AM 20.1 °F 15.2 °F 12.0 °F 71% 29.96 in 10.0 mi Variable 3.5 mph - 0.00 in   Mostly Cloudy
10:56 AM 20.1 °F 11.3 °F 10.0 °F 65% 29.96 in 10.0 mi West 6.9 mph - 0.00 in Snow Light Snow
11:56 AM 20.1 °F 8.8 °F 11.1 °F 68% 29.95 in 4.0 mi WSW 10.4 mph - 0.00 in Snow Light Snow
12:56 PM 21.0 °F 10.6 °F 12.0 °F 68% 29.93 in 10.0 mi West 9.2 mph - 0.00 in Snow Light Snow
1:56 PM 21.0 °F 12.4 °F 12.0 °F 68% 29.92 in 10.0 mi WSW 6.9 mph - 0.00 in   Overcast
2:56 PM 21.0 °F 11.4 °F 9.1 °F 60% 29.93 in 10.0 mi WNW 8.1 mph - N/A   Overcast
3:10 PM 21.2 °F 11.7 °F 10.4 °F 63% 29.84 in 10.0 mi West 8.1 mph - N/A   Overcast
3:56 PM 20.1 °F 10.3 °F 9.1 °F 62% 29.94 in 10.0 mi West 8.1 mph - 0.00 in Snow Light Snow
4:56 PM 20.1 °F 9.5 °F 9.1 °F 62% 29.96 in 10.0 mi West 9.2 mph - 0.00 in   Overcast
5:56 PM 19.0 °F 9.0 °F 10.0 °F 68% 29.98 in 10.0 mi West 8.1 mph - 0.00 in   Overcast
6:19 PM 17.6 °F 3.7 °F 10.4 °F 73% 29.89 in 10.0 mi West 13.8 mph - 0.00 in Snow Light Snow
6:56 PM 18.1 °F 6.3 °F 10.0 °F 71% 30.01 in 10.0 mi West 10.4 mph - 0.00 in   Overcast
7:56 PM 17.1 °F 4.3 °F 11.1 °F 77% 30.04 in 6.0 mi WSW 11.5 mph - 0.00 in Snow Light Snow
8:05 PM 17.6 °F 5.0 °F 10.4 °F 73% 29.94 in 7.0 mi WSW 11.5 mph - 0.00 in Snow Light Snow
8:14 PM 17.6 °F 6.4 °F 10.4 °F 73% 29.94 in 9.0 mi WSW 9.2 mph - 0.00 in Snow Light Snow
8:56 PM 17.1 °F 3.0 °F 10.0 °F 74% 30.04 in 10.0 mi WSW 13.8 mph - 0.00 in   Overcast
9:56 PM 16.2 °F 3.9 °F 10.0 °F 77% 30.07 in 9.0 mi WSW 10.4 mph - 0.00 in Snow Light Snow
10:56 PM 16.2 °F 4.7 °F 10.0 °F 77% 30.09 in 10.0 mi WSW 9.2 mph - 0.00 in Snow Light Snow
11:30 PM 15.8 °F 2.7 °F 10.4 °F 79% 29.99 in 10.0 mi WSW 11.5 mph - 0.00 in Snow Light Snow
11:56 PM 16.2 °F 2.5 °F 10.0 °F 77% 30.09 in 9.0 mi WSW 12.7 mph - 0.00 in Snow Light Snow